TimeEEST,TemperatureF,Dew PointF,Humidity,Sea Level PressureIn,VisibilityMPH,Wind Direction,Wind SpeedMPH,Gust SpeedMPH,PrecipitationIn,Events,Conditions,WindDirDegrees,DateUTC
12:20 AM,64.4,59.0,83,29.89,6.2,NNW,4.6,-,N/A,,Partly Cloudy,340,2012-10-11 21:20:00
12:50 AM,64.4,59.0,83,29.92,6.2,NNW,6.9,-,N/A,,Partly Cloudy,340,2012-10-11 21:50:00
1:20 AM,64.4,59.0,83,29.92,6.2,NNW,4.6,-,N/A,,Partly Cloudy,340,2012-10-11 22:20:00
1:50 AM,66.2,57.2,73,29.92,6.2,NNW,6.9,-,N/A,,Partly Cloudy,340,2012-10-11 22:50:00
2:20 AM,64.4,57.2,77,29.92,6.2,NNW,8.1,-,N/A,,Partly Cloudy,340,2012-10-11 23:20:00
2:50 AM,64.4,57.2,77,29.92,6.2,NW,8.1,-,N/A,,Partly Cloudy,320,2012-10-11 23:50:00
3:00 AM,65,56,66,29.91,6,NW,8.1,,,,Partly Cloudy,320,2012-10-12 00:00:00
3:50 AM,66.2,55.4,68,29.92,6.2,NW,6.9,-,N/A,,Partly Cloudy,310,2012-10-12 00:50:00
4:20 AM,64.4,53.6,68,29.92,6.2,North,5.8,-,N/A,,Partly Cloudy,360,2012-10-12 01:20:00
4:50 AM,64.4,53.6,68,29.95,6.2,NW,8.1,-,N/A,,Partly Cloudy,320,2012-10-12 01:50:00
5:20 AM,62.6,53.6,72,29.95,6.2,Calm,Calm,-,N/A,,Partly Cloudy,0,2012-10-12 02:20:00
5:50 AM,64.4,53.6,68,29.95,6.2,North,9.2,-,N/A,,Partly Cloudy,350,2012-10-12 02:50:00
6:20 AM,64.4,53.6,68,29.95,6.2,North,4.6,-,N/A,,Partly Cloudy,360,2012-10-12 03:20:00
6:50 AM,62.6,53.6,72,29.95,6.2,North,10.4,-,N/A,,Partly Cloudy,350,2012-10-12 03:50:00
7:20 AM,66.2,51.8,60,29.98,6.2,North,5.8,-,N/A,,Partly Cloudy,350,2012-10-12 04:20:00
7:50 AM,64.4,53.6,68,29.98,6.2,North,6.9,-,N/A,,Partly Cloudy,360,2012-10-12 04:50:00
8:20 AM,66.2,53.6,64,29.98,6.2,North,8.1,-,N/A,,Partly Cloudy,350,2012-10-12 05:20:00
8:50 AM,69.8,53.6,56,30.01,6.2,North,8.1,-,N/A,,Partly Cloudy,350,2012-10-12 05:50:00
9:00 AM,70,52,42,29.99,6,North,8.1,,,,Scattered Clouds,350,2012-10-12 06:00:00
9:20 AM,71.6,51.8,50,30.01,6.2,North,6.9,-,N/A,,Partly Cloudy,10,2012-10-12 06:20:00
9:50 AM,73.4,51.8,47,30.01,6.2,North,6.9,-,N/A,,Partly Cloudy,360,2012-10-12 06:50:00
10:20 AM,77.0,50.0,39,30.01,6.2,North,9.2,-,N/A,,Partly Cloudy,360,2012-10-12 07:20:00
10:50 AM,78.8,48.2,34,30.01,6.2,North,8.1,-,N/A,,Partly Cloudy,10,2012-10-12 07:50:00
11:20 AM,78.8,48.2,34,30.01,6.2,North,4.6,-,N/A,,Partly Cloudy,360,2012-10-12 08:20:00
11:50 AM,80.6,53.6,39,30.01,6.2,Variable,3.5,-,N/A,,Partly Cloudy,0,2012-10-12 08:50:00
12:20 PM,80.6,50.0,34,30.01,6.2,SE,4.6,-,N/A,,Partly Cloudy,130,2012-10-12 09:20:00
12:50 PM,80.6,50.0,34,30.01,6.2,SE,6.9,-,N/A,,Partly Cloudy,140,2012-10-12 09:50:00
1:20 PM,80.6,50.0,34,30.01,-9999.0,SE,5.8,-,N/A,,Clear,130,2012-10-12 10:20:00
1:50 PM,80.6,53.6,39,30.01,-9999.0,SE,6.9,-,N/A,,Clear,140,2012-10-12 10:50:00
2:20 PM,80.6,53.6,39,30.01,-9999.0,SSE,6.9,-,N/A,,Clear,150,2012-10-12 11:20:00
2:50 PM,78.8,59.0,51,30.01,-9999.0,SSE,8.1,-,N/A,,Clear,160,2012-10-12 11:50:00
3:00 PM,79,58,39,29.99,6,SSE,8.1,,,,,160,2012-10-12 12:00:00
3:20 PM,78.8,59.0,51,30.01,-9999.0,SSE,6.9,-,N/A,,Clear,160,2012-10-12 12:20:00
3:50 PM,78.8,60.8,54,30.01,-9999.0,South,8.1,-,N/A,,Clear,180,2012-10-12 12:50:00
4:20 PM,78.8,57.2,47,30.01,-9999.0,South,8.1,-,N/A,,Clear,180,2012-10-12 13:20:00
4:50 PM,78.8,60.8,54,30.01,-9999.0,South,8.1,-,N/A,,Clear,180,2012-10-12 13:50:00
5:20 PM,77.0,62.6,61,30.01,-9999.0,South,5.8,-,N/A,,Clear,170,2012-10-12 14:20:00
5:50 PM,75.2,62.6,65,30.01,-9999.0,SSE,4.6,-,N/A,,Clear,160,2012-10-12 14:50:00
6:20 PM,73.4,64.4,73,30.01,-9999.0,SSE,3.5,-,N/A,,Clear,150,2012-10-12 15:20:00
6:50 PM,71.6,64.4,78,30.01,-9999.0,South,2.3,-,N/A,,Clear,180,2012-10-12 15:50:00
7:20 PM,69.8,64.4,83,30.01,-9999.0,Variable,1.2,-,N/A,,Clear,0,2012-10-12 16:20:00
7:50 PM,69.8,62.6,78,30.04,-9999.0,Variable,1.2,-,N/A,,Clear,0,2012-10-12 16:50:00
8:20 PM,69.8,62.6,78,30.04,-9999.0,NNE,2.3,-,N/A,,Clear,30,2012-10-12 17:20:00
8:50 PM,68.0,62.6,83,30.04,-9999.0,North,2.3,-,N/A,,Clear,360,2012-10-12 17:50:00
9:00 PM,69,63,77,30.02,6,North,2.3,,,,,0,2012-10-12 18:00:00
9:20 PM,68.0,62.6,83,30.04,-9999.0,North,2.3,-,N/A,,Clear,350,2012-10-12 18:20:00
9:50 PM,66.2,62.6,88,30.04,-9999.0,NNW,5.8,-,N/A,,Clear,340,2012-10-12 18:50:00
10:20 PM,66.2,62.6,88,30.04,-9999.0,North,6.9,-,N/A,,Clear,350,2012-10-12 19:20:00
10:50 PM,66.2,60.8,83,30.04,-9999.0,North,4.6,-,N/A,,Clear,360,2012-10-12 19:50:00
11:20 PM,66.2,60.8,83,30.04,-9999.0,NNW,5.8,-,N/A,,Clear,340,2012-10-12 20:20:00
11:50 PM,66.2,60.8,83,30.04,-9999.0,NW,5.8,-,N/A,,Clear,320,2012-10-12 20:50:00